Simultaneous Nadir Overpasses (SNOs) Predictions

Prediction of SNOs between GOES-16 and METOP-B Satellite Orbit:

Table of predicted SNOs for the next 14.0 days since TLE Epoch: 10/26/2019
Index Date Time (GOES-16) GOES-16 Lat,Lon METOP-B Lat,Lon Distance(km) Time Diff (sec)
1 10/26/2019 02:18:48 0.00, -75.19 0.54, -72.72 280.79 80
2 10/27/2019 14:40:21 -0.00, -75.21 0.45, -77.29 237.23 80
3 10/28/2019 14:17:03 -0.00, -75.21 -0.68, -72.30 332.46 80
4 10/30/2019 02:38:43 0.00, -75.21 -0.39, -76.88 191.08 80
5 10/31/2019 02:15:25 0.00, -75.22 0.74, -71.89 378.82 80
6 11/01/2019 14:36:58 -0.00, -75.24 0.25, -76.46 138.45 80
7 11/02/2019 14:13:39 -0.01, -75.25 -0.88, -71.47 431.78 80
8 11/04/2019 02:35:20 0.01, -75.26 -0.18, -76.06 90.64 80
9 11/05/2019 02:12:01 0.01, -75.28 0.96, -71.07 480.07 80
10 11/06/2019 14:33:35 -0.00, -75.31 0.04, -75.63 35.86 80




NCC Satellite Simultaneous Nadir Overpasses (SNOs) Prediction Service
